Location: Krasnoyarskiy Pitomnik
(51.1333°N, 71.6167°E)
Time: 14:01:42
(UTC+00:00)

X-37B - Pass Details

Date: 22 October 2021
Orbit: 330 x 341 km, 45.0° (Epoch: 20 November)

Event Time Altitude Azimuth Distance (km) Brightness Sun altitude
Rises 13:59:04 0° 260° (W) 2,127 5.8 -18.3°
Reaches altitude 10° 14:01:26 10° 242° (WSW) 1,286 4.0 -18.7°
Maximum altitude 14:03:33 19° 194° (SSW) 897 2.5 -19.0°
Enters shadow 14:03:38 19° 191° (SSW) 898 2.5 -19.0°
